www.pogodaiklimat.ru

Погода и климат >> Архив погоды >> Россия >> Магаданская область >> Коркодон


ПОГОДА в Коркодоне

  • Прогноз погоды в Коркодоне
  • Монитор погоды в Коркодоне
  • Климат города

АРХИВ ПОГОДЫ в Коркодоне

Время (UTC), дата Ветер
(напр.,м/с)
 
Видим.   Явления Облачность Т
(С)
Тd
(С)
f
(%)
Тe
(С)
Тes
(С)
Комфортность P
(гПа)
Po
(гПа)
Тmin
(С)
Tmax
(С)
R
(мм)
S
(см)
03 16.03 В 2 50 км ясно -6.8 -13.5 59 -11 -7 1018.3 1005.4
06 16.03 В 2 50 км ясно -4.6 -13.3 51 -8 -8 1017.0 1004.3
09 16.03 В 1 50 км ясно -13.9 -18.2 70 -16 -16 1016.8 1003.7 -4.1
12 16.03 СВ 1 50 км ясно -22.6 -24.4 85 -26 -26 1017.3 1003.7
15 16.03 ЮВ 1 50 км ясно -26.0 -27.8 85 -30 -30 1017.8 1004.1
18 16.03 В 1 50 км ясно -26.2 -28.1 84 -30 -30 1018.2 1004.4
21 16.03 В 2 50 км ясно -23.8 -25.6 85 -30 -30 1018.8 1005.1 -27.0 78
00 17.03 В 1 50 км ясно -14.8 -18.2 75 -17 -14 1019.5 1006.2
03 17.03 В 2 50 км ясно -7.5 -15.8 51 -12 -8 1019.9 1007.0
06 17.03 ЮВ 2 50 км ясно -5.8 -15.4 47 -10 -9 1020.4 1007.6
09 17.03 СВ 1 50 км ясно -16.6 -20.8 70 -19 -19 1022.5 1009.1 -5.7
12 17.03 штиль 0 50 км ясно -23.2 -25.0 85 -23 -23 1024.0 1010.3
15 17.03 В 3 50 км ясно -18.5 -20.4 85 -26 -26 1024.2 1010.7
18 17.03 В 2 50 км ясно -23.2 -24.4 90 -30 -30 1024.8 1011.1
21 17.03 В 2 50 км ясно -23.4 -24.6 90 -30 -29 1024.4 1010.7 -26.4 78
00 18.03 В 3 50 км ясно -17.1 -20.5 75 -24 -21 1023.0 1009.6
03 18.03 В 3 50 км ясно -9.1 -15.9 58 -15 -12 1020.3 1007.3
06 18.03 В 2 50 км ясно -7.3 -17.5 44 1019.0 1006.0
09 18.03 СВ 1 50 км ясно -14.8 -20.8 60 -17 -17 1019.0 1005.7 -7.1
12 18.03 штиль 0 50 км ясно -23.5 -26.0 80 -24 -24 1020.2 1006.5
15 18.03 штиль 0 50 км 5/0
[Ci fib]
-22.0 -23.9 84 -22 -22 1020.4 1006.8
18 18.03 штиль 0 50 км 9/0
[Ci fib]
-21.9 -23.8 85 -22 -22 1020.9 1007.3
21 18.03 штиль 0 50 км 8/0
[Ci fib]
-21.9 -23.8 85 -22 -21 1021.6 1008.0 -24.0 78
00 19.03 З 2 50 км 3/0
[Ci fib]
-12.7 -17.9 65 -17 -14 1021.9 1008.7
03 19.03 З 1 50 км ясно -6.8 -15.3 51 -9 -4 1020.8 1007.9
06 19.03 З 2 50 км ясно -4.1 -15.4 41 -7 -7 1020.2 1007.5
09 19.03 ЮВ 1 50 км ясно -12.6 -20.9 50 -15 -15 1021.3 1008.1 -3.8
12 19.03 штиль 0 50 км ясно -24.4 -26.9 80 -24 -24 1022.7 1008.9
15 19.03 СЗ 1 50 км ясно -28.6 -31.0 80 -33 -33 опасность
обморожения
1024.4 1010.3
18 19.03 СЗ 1 50 км ясно -29.7 -31.5 84 -34 -34 опасность
обморожения
1024.2 1010.1
21 19.03 З 1 50 км 3/0
[Ci fib]
-29.7 -31.5 84 -34 -33 опасность
обморожения
1024.5 1010.4 -30.8 78
00 20.03 З 1 50 км 5/0
[Ci fib]
-17.5 -22.5 65 -20 -17 1023.3 1009.9
03 20.03 З 1 50 км 8/0
[Ci fib]
-9.1 -17.9 49 -11 -7 1020.9 1007.9
06 20.03 СЗ 1 50 км 9/0
[Ci fib]
-7.0 -17.7 42 -9 -8 1019.9 1007.0
09 20.03 штиль 0 50 км 5/0
[Ci fib]
-17.5 -23.4 60 -18 -18 1020.8 1007.4 -6.8
12 20.03 штиль 0 50 км ясно -26.0 -28.4 80 -26 -26 1022.0 1008.2
15 20.03 СЗ 1 50 км ясно -26.9 -29.3 80 -31 -31 опасность
обморожения
1022.4 1008.5
18 20.03 СЗ 1 50 км 6/0
[Ci fib]
-26.2 -28.1 84 -30 -30 1023.0 1009.1
21 20.03 штиль 0 50 км 9/0
[Cs]
-26.0 -27.8 85 -26 -25 1024.0 1010.1 -27.4 78
00 21.03 ЮЗ 1 50 км 9/0
[Cs]
-19.3 -24.2 65 -22 -19 1024.1 1010.6
03 21.03 З 1 50 км 9/0
[Ci fib]
-9.3 -19.0 45 -11 -8 1022.8 1009.8
06 21.03 З 1 50 км 9/0
[Cs]
-6.0 -17.9 38 -8 -7 1022.3 1009.5
09 21.03 С 1 50 км 8/0
[Ci fib]
-13.4 -21.6 50 -16 -16 1023.1 1009.9 -5.5
12 21.03 СЗ 1 50 км 3/0
[Ci fib]
-23.7 -26.3 79 -27 -27 1024.2 1010.5
15 21.03 штиль 0 50 км ясно -27.7 -30.1 80 -28 -28 1025.2 1011.2
18 21.03 штиль 0 50 км ясно -30.4 -32.8 79 -30 -30 1025.6 1011.4
21 21.03 ЮВ 1 50 км ясно -26.6 -28.4 85 -30 -30 1025.9 1011.9 -30.9 78
00 22.03 Ю 1 50 км 3/0
[Ci fib]
-16.0 -22.0 60 -19 -15 1024.5 1011.2
03 22.03 Ю 1 50 км 3/3 1000 м
[Sc]
-8.7 -17.2 50 -11 -7 1022.6 1009.6
06 22.03 ЮВ 1 50 км 3/3 1000 м
[Sc]
-5.6 -17.0 40 -7 -6 1021.3 1008.5
09 22.03 штиль 0 50 км 9/9 1000 м
[Sc]
-11.1 -18.4 55 -11 -11 1021.5 1008.4 -4.6
12 22.03 ЮВ 1 50 км 9/9 1000 м
[Sc]
-11.0 -17.7 58
15 22.03 ЮВ 1 50 км 9/9 1000 м
[Sc]
-12.1 -18.3 60 -14 -14 1021.7 1008.5
18 22.03 ЮВ 1 50 км 9/9 1000 м
[Sc]
-13.1 -18.3 65 -15 -15 1021.8 1008.6
21 22.03 штиль 0 50 км 9/9 1000 м
[Sc]
-13.3 -18.5 65 -13 -13 1022.7 1009.5 -13.8 78

 

Местоположение метеостанции Коркодон (Магаданская область, Россия): широта 64.75 долгота 153.90 высота над уровнем моря 99 м.

В архиве по умолчанию представлена погода в Коркодоне за последнюю неделю. Архивные данные за месяц целиком и за предыдущие месяцы, начиная с января 2011 года, Вы можете получить, выбрав интересующий диапазон дат из раскрывающегося списка и нажав кнопку "Ввод!".

Внимание! Время в таблицах - всемирное. Для получения местного времени необходимо прибавить поправку, которая в Коркодоне равна 11 ч.

Смотрите также архив погоды в соседних городах и на ближайших метеорологических станциях:

Погода в Балыгычане (Магаданская область, Россия) (94 км)
Погода в Зырянке (Якутия, Россия) (177 км)
Погода в Сеймчане (Магаданская область, Россия) (217 км)
Погода в Омсукчане (Магаданская область, Россия) (265 км)
Погода в Среднекане (Магаданская область, Россия) (268 км)
Погода в Совхозе Эльген (Магаданская область, Россия) (271 км)
Погода в Лабазной (Магаданская область, Россия) (276 км)
Погода в Среднеколымске (Якутия, Россия) (300 км)
Погода в Омолоне (Чукотка, Россия) (315 км)
Погода в Ягодной (Магаданская область, Россия) (327 км)

Пояснения к столбцам:

Ветер - указаны скорость ветра в м/с - средняя за 10 мин, порывы в срок и между сроками (в фигурных скобках) и направление, откуда дует ветер: С - северный, СВ - северо-восточный, В - восточный, ЮВ - юго-восточный, Ю - южный, ЮЗ - юго-западный, З - западный, СЗ - северо-западный.
Видимость - горизонтальная дальность видимости в метрах или километрах. При видимости от 1 до 10 км при отсутствии осадков обычно наблюдается дымка, при ухудшении видимости до 1 км и менее - туман. В сухую погоду видимость может ухудшаться дымом, пылью или мглою.
Явления - указаны атмосферные явления, наблюдавшиеся в срок или в последний час перед сроком; фигурными скобками обозначены явления, наблюдавшиеся между сроками (за 1-3 часа до срока); квадратными скобками обозначены град или гололедные отложения с указанием их диаметра в мм.
Облачность - указаны через наклонную черту общая и нижняя облачность в баллах и высота нижней границы облаков в метрах; квадратными скобками обозначены формы облаков: Ci - перистые, Cs - перисто-слоистые, Cc - перисто-кучевые, Ac - высококучевые, As - высокослоистые, Sc - слоисто-кучевые, Ns - слоисто-дождевые, Cu - кучевые, Cb - кучево-дождевые. Подробнее классификацию облаков см. в Атласе облаков (PDF).
T - Температура воздуха - температура, измеренная на высоте 2 м над землей.
Td - Температура точки росы - температура, при понижении до которой содержащийся в воздухе водяной пар достигнет насыщения.
f - Относительная влажность воздуха - влажноcть воздуха, измеренная на высоте 2 м над землей.
Te - Эффективная температура - температура, которую ощущает одетый по сезону человек в тени. Характеристика душности погоды. При расчете учитывается влияние влажности воздуха и скорости ветра на теплоощущения человека.
Tes - Эффективная температура на солнце - температура, которую ощущает человек, с поправкой на солнечный нагрев. Характеристика знойности погоды. Зависит от высоты солнца над горизонтом, облачности и скорости ветра. Ночью, в пасмурную погоду, а также при ветре 12 м/с и более поправка равна нулю.
P - Атмосферное давление - приведенное к уровню моря атмосферное давление.
Po - Атмосферное давление - измеренное на уровне метеостанции атмосферное давление.
Tmin - Минимальная температура - минимум температуры воздуха на высоте 2 м над землей.
Tmax - Максимальная температура - максимум температуры воздуха на высоте 2 м над землей.
R - Количество осадков - Количество выпавших осадков, мм. При наведении курсора мыши на число - период времени, за который выпало указанное количество осадков.
S - Снежный покров - Высота снежного покрова, см. При наведении курсора мыши на число - состояние снежного покрова и степень покрытия местности в баллах.